Regional Weather Roundup
Issued by NWS

Home | Current Version | Previous Version | Graphics & Text | Print | Product List | Glossary On
Versions: 1 2 3 4 5 6 7 8 9 10 11 12 13 14 15 16 17 18 19 20 21 22 23 24 25 26 27 28 29 30 31 32 33 34 35 36 37 38 39 40 41 42 43 44 45 46 47 48 49 50
000
ASUS43 KLMK 292010
RWRKY
KENTUCKY REGIONAL WEATHER ROUNDUP
NATIONAL WEATHER SERVICE LOUISVILLE KY
300 PM EST THU JAN 29 2015

NOTE "FAIR" INDICATES FEW OR NO CLOUDS BELOW 12,000 FEET
WITH NO SIGNIFICANT WEATHER AND/OR OBSTRUCTIONS TO VISIBILITY.

KYZ001>023-026-027-061>063-070>075-292100-
WESTERN AND SOUTH CENTRAL KENTUCKY

CITY           SKY/WX    TMP DP  RH WIND       PRES   REMARKS
PADUCAH        CLOUDY    44  33  65 NW13G22   30.15R
HENDERSON      CLOUDY    41  30  65 NW13G24   30.11R
OWENSBORO      CLOUDY    42  35  76 NW14G21   30.10R
HOPKINSVILLE   PTSUNNY   50  38  63 NW16G29   30.07R
BOWLING GREEN  CLOUDY    52  38  58 NW16G25   30.03R
GLASGOW        CLOUDY    52  38  59 NW20G28   30.01R
$$

KYZ024-025-028>034-038-045-046-053-292100-
NORTH CENTRAL KENTUCKY

CITY           SKY/WX    TMP DP  RH WIND       PRES   REMARKS
LOUISVILLE/SDF CLOUDY    44  35  70 W23G32    30.01R HAZE
LOUISVILLE/LOU CLOUDY    44  34  67 W17       30.01R
FORT KNOX      CLOUDY    43  35  71 W16G30    30.00R
$$

KYZ035>037-039>044-047>052-055>060-089>105-292100-
NORTHEAST KENTUCKY

CITY           SKY/WX    TMP DP  RH WIND       PRES   REMARKS
LEXINGTON      CLOUDY    48  38  68 W17G29    29.94R
COVINGTON      CLOUDY    41  33  73 W22G35    29.90R
FRANKFORT      CLOUDY    47  35  63 W13G29    29.94R
$$

KYZ054-064>069-076>088-106>120-292100-
SOUTHEAST KENTUCKY

CITY           SKY/WX    TMP DP  RH WIND       PRES   REMARKS
JACKSON        CLOUDY    53  36  52 SW15G30   29.90S
LONDON         MOSUNNY   57  33  40 SW12      29.93F
SOMERSET       PTSUNNY   59  37  44 W16G28    29.96S
MIDDLESBORO    SUNNY     54  35  48 S9G18     29.98F
MONTICELLO     PTCLDY    61  40  45 SW16G23   29.98F
$$




USA.gov is the U.S. government's official web portal to all federal, state and local government web resources and services.